Flag for Germany Weather past 2 weeks in Kirchheim unter Teck, Baden-Württemberg, Germany

32 °F

Passing clouds.

Feels Like: 29 °F
Forecast: 33 / 46 °F
Wind: 3 mph from South

Location: Stuttgart-Echterdingen

Current Time: Nov 28, 2015 at 6:18:01 AM

Latest Report: Nov 28, 2015 at 5:20 AM

Visibility: N/A

Pressure: 29.86 "Hg

Humidity: 80%

Dew point: 27 °F

Location of Kirchheim unter TeckLocation

Historic Weather in Kirchheim unter Teck — Graph


Kirchheim unter Teck temperature yesterday

Maximum temperature yesterday: 41 °F (at 12:50 PM)
Minimum temperature yesterday: 30 °F (at 8:20 PM)
Average temperature yesterday: 36 °F

Past Weeks' High & Low Weather Summary

High68 °F (Nov 16, 1:20 PM)100% (Nov 13, 5:20 AM)30.45 "Hg (Nov 13, 5:20 AM)
Low23 °F (Nov 24, 2:20 AM)23% (Nov 16, 1:20 PM)29.36 "Hg (Nov 21, 2:50 PM)
Average44 °F80%30.00 "Hg
* Reported Nov 13 4:20 AM — Nov 28 4:50 AM, Kirchheim unter Teck, Weather by CustomWeather, © 2015

Note: Actual official high and low records may vary slightly from our data, if they occured in-between our weather recording intervals... More about our weather records


Kirchheim unter Teck weather history for previous 24 hours

Time TempWeatherWind HumidityBarometerVisibility
4:50 AM
Sat, Nov 28
30 °FClear.6 mph86%29.89 "Hg10 mi
4:20 AM30 °FClear.1 mph86%29.89 "Hg10 mi
3:50 AM30 °FClear.1 mph86%29.89 "Hg10 mi
3:20 AM30 °FPassing clouds.3 mph86%29.89 "HgN/A
2:50 AM28 °FClear.2 mph86%29.92 "Hg10 mi
2:20 AM28 °FPassing clouds.2 mph86%29.92 "HgN/A
1:50 AM28 °FPassing clouds.3 mph86%29.92 "HgN/A
1:20 AM28 °FPassing clouds.3 mph86%29.92 "HgN/A
12:50 AM30 °FPassing clouds.2 mph86%29.92 "HgN/A
11:50 PM
Fri, Nov 27
30 °FPassing clouds.1 mph93%29.95 "HgN/A
11:20 PM30 °FPassing clouds.1 mph93%29.95 "HgN/A
10:50 PM30 °FPassing clouds.1 mph93%29.95 "HgN/A
10:20 PM30 °FPassing clouds.3 mph93%29.95 "HgN/A
9:50 PM30 °FPassing clouds.2 mph93%29.98 "HgN/A
9:20 PM30 °FPassing clouds.1 mph93%29.98 "HgN/A
8:50 PM30 °FClear.1 mph86%29.98 "Hg10 mi
8:20 PM30 °FPassing clouds.2 mph93%29.98 "HgN/A
7:50 PM32 °FPassing clouds.1 mph80%29.98 "HgN/A
7:20 PM34 °FPassing clouds.No wind81%29.98 "HgN/A
6:50 PM34 °FPassing clouds.1 mph81%29.98 "HgN/A
6:20 PM34 °FPassing clouds.2 mph81%29.98 "HgN/A
5:50 PM36 °FPassing clouds.5 mph81%29.98 "HgN/A
5:20 PM36 °FPassing clouds.5 mph81%30.01 "HgN/A
4:50 PM36 °FPassing clouds.2 mph87%30.01 "HgN/A
4:20 PM37 °FPassing clouds.5 mph81%30.01 "HgN/A
3:50 PM37 °FPassing clouds.3 mph81%30.01 "HgN/A
3:20 PM39 °FScattered clouds.5 mph75%30.01 "HgN/A
2:50 PM39 °FScattered clouds.3 mph75%30.01 "HgN/A
2:20 PM39 °FScattered clouds.7 mph75%30.01 "HgN/A
1:50 PM41 °FScattered clouds.3 mph70%30.04 "HgN/A
1:20 PM41 °FPassing clouds.3 mph70%30.04 "HgN/A
12:50 PM41 °FPassing clouds.5 mph66%30.04 "HgN/A
12:20 PM39 °FPassing clouds.2 mph75%30.07 "HgN/A
11:50 AM39 °FScattered clouds.3 mph81%30.07 "HgN/A
11:20 AM37 °FScattered clouds.2 mph87%30.07 "HgN/A
10:50 AM39 °FFog.3 mph81%30.09 "HgN/A
10:20 AM39 °FFog.3 mph81%30.09 "HgN/A
9:50 AM37 °FFog.1 mph87%30.09 "HgN/A
9:20 AM37 °FFog.1 mph93%30.09 "HgN/A
8:50 AM36 °FFog.1 mph93%30.09 "HgN/A
7:50 AM34 °FFog.1 mph100%30.09 "HgN/A
7:20 AM34 °FFog.1 mph100%30.09 "HgN/A
6:50 AM36 °FPassing clouds.2 mph93%30.09 "HgN/A
6:20 AM36 °FFog.2 mph93%30.12 "Hg3 mi
Weather by CustomWeather, © 2015

See weather overviewHow to use our weather pages